Weather History for Cocoa Beach, FL

Change the Weather History Date:

Monday, August 12, 2013

  Actual Average Record
Temperature  
Mean Temperature 82 °F -  
Max Temperature 87 °F 85 °F 96 °F (2006)
Min Temperature 78 °F 75 °F 73 °F (2003)
Cooling Degree Days 17    
Growing Degree Days 32 (Base 50)    
Moisture  
Dew Point 71 °F    
Average Humidity 67    
Maximum Humidity 78    
Minimum Humidity 57    
Precipitation  
Precipitation 0.00 in - - ()
Sea Level Pressure  
Sea Level Pressure 30.10 in    
Wind  
Wind Speed 6 mph (ESE)    
Max Wind Speed 10 mph    
Max Gust Speed -    
Visibility 10 miles    
Events      
Averages and records for this station are not official NWS values.
T = Trace of Precipitation, MM = Missing Value Source: NWS Daily Summary

Daily Weather History Graph

Daily Weather History Graph

Search for Another Location

Airport:

Trip Planner

Search our weather history database for the weather conditions in past years. The results will help you decide how hot, cold, wet, or windy it might be!

Date:

Astronomy

Aug. 12, 2013 Rise Set
Actual Time 6:50 AM EDT 8:03 PM EDT
Civil Twilight 6:25 AM EDT 8:28 PM EDT
Nautical Twilight 5:56 AM EDT 8:57 PM EDT
Astronomical Twilight 5:26 AM EDT 9:28 PM EDT
Moon 12:05 PM EDT (8/12) 11:32 PM EDT (8/12)
Length of Visible Light 14h 02m
Length of Day
13h 12m
Waxing Crescent, 31% of the Moon is Illuminated
Aug 12
Waxing Crescent
Aug 14
First Quarter
Aug 20
Full
Aug 28
Last Quarter
Sep 5
New

Hourly Weather History & Observations

Time (EDT) Temp. Heat Index Dew Point Humidity Pressure Visibility Wind Dir Wind Speed Gust Speed Precip Events Conditions
12:58 AM 80.6 °F 84.6 °F 71.6 °F 74% 30.16 in 10.0 mi SSE 6.9 mph - N/A   Clear
1:58 AM 79.9 °F - 71.6 °F 76% 30.14 in 10.0 mi SSE 4.6 mph - N/A   Clear
2:58 AM 79.3 °F - 71.4 °F 77% 30.12 in 10.0 mi South 3.5 mph - N/A   Clear
3:58 AM 79.0 °F - 71.8 °F 78% 30.12 in 10.0 mi South 2.3 mph - N/A   Clear
4:58 AM 78.6 °F - 71.4 °F 78% 30.12 in 10.0 mi SSW 2.3 mph - N/A   Clear
5:58 AM 79.0 °F - 71.1 °F 77% 30.12 in 10.0 mi Calm Calm - N/A   Clear
6:58 AM 78.6 °F - 70.5 °F 76% 30.12 in 10.0 mi Calm Calm - N/A   Clear
7:58 AM 81.0 °F 85.4 °F 72.5 °F 75% 30.14 in 10.0 mi WNW 2.3 mph - N/A   Clear
8:58 AM 82.9 °F 87.7 °F 71.6 °F 68% 30.14 in 10.0 mi ENE 3.5 mph - N/A   Clear
9:58 AM 84.0 °F 89.3 °F 71.6 °F 66% 30.14 in 10.0 mi NE 5.8 mph - N/A   Clear
10:58 AM 84.9 °F 90.1 °F 70.9 °F 63% 30.14 in 10.0 mi ENE 5.8 mph - N/A   Clear
11:58 AM 84.9 °F 89.7 °F 70.7 °F 62% 30.14 in 10.0 mi East 5.8 mph - N/A   Clear
12:58 PM 85.8 °F 91.1 °F 70.9 °F 61% 30.12 in 10.0 mi East 6.9 mph - N/A   Clear
1:58 PM 86.4 °F 91.1 °F 70.2 °F 58% 30.11 in 10.0 mi East 6.9 mph - N/A   Clear
2:58 PM 86.4 °F 91.4 °F 70.3 °F 59% 30.09 in 10.0 mi East 8.1 mph - N/A   Clear
3:58 PM 86.4 °F 91.1 °F 70.0 °F 58% 30.09 in 10.0 mi East 8.1 mph - N/A   Clear
4:58 PM 86.5 °F 91.0 °F 69.8 °F 57% 30.08 in 10.0 mi East 10.4 mph - N/A   Clear
5:35 PM 86.0 °F 90.4 °F 69.8 °F 58% 30.05 in 10.0 mi ESE 9.2 mph - N/A   Light Drizzle
5:36 PM 86.0 °F 90.4 °F 69.8 °F 58% 30.05 in 10.0 mi ESE 9.2 mph - N/A   Clear
5:58 PM 85.6 °F 90.4 °F 70.5 °F 60% 30.06 in 10.0 mi ESE 9.2 mph - 0.00 in   Clear
6:58 PM 84.6 °F 89.4 °F 70.7 °F 63% 30.06 in 10.0 mi SE 10.4 mph - N/A   Clear
7:58 PM 83.3 °F 88.2 °F 71.4 °F 67% 30.06 in 10.0 mi SE 8.1 mph - N/A   Clear
8:58 PM 82.4 °F 86.5 °F 70.3 °F 67% 30.08 in 10.0 mi SE 9.2 mph - N/A   Clear
9:58 PM 82.0 °F 86.5 °F 71.2 °F 70% 30.09 in 10.0 mi SE 10.4 mph - N/A   Clear
10:58 PM 82.0 °F 87.0 °F 72.3 °F 72% 30.09 in 10.0 mi SE 8.1 mph - N/A   Clear
11:58 PM 81.7 °F 86.7 °F 72.9 °F 74% 30.09 in 10.0 mi SE 9.2 mph - N/A   Clear